GOES 11 [-]

Last updated on Fri Dec 29 2023 00:02:21 GMT+0000 (Coordinated Universal Time)

1 26352U 00022A 23362.42053097 .00000020 00000+0 00000+0 0 9998 2 26352 9.8754 54.7198 0004628 212.0975 193.7517 0.99042075 86062

Satellite not in orbit

GOES 11 [-]